Indian Springs, NV

11:44 PM PST on December 15, 2017 (GMT -0800)
Indian Springs Air Force Auxiliary

Weather History for KINS - November, 2013

Change the Weather History Date:

Friday, November 8, 2013

  Actual Average (KDRA) Record (KDRA)
Temperature  
Mean Temperature 52 °F -  
Max Temperature 68 °F 62 °F 81 °F (2006)
Min Temperature 35 °F 40 °F 30 °F (2011)
Degree Days  
Heating Degree Days 14    
Growing Degree Days 2 (Base 50)    
Moisture  
Dew Point 15 °F    
Average Humidity 28    
Maximum Humidity 44    
Minimum Humidity 11    
Precipitation  
Precipitation 0.00 in - - ()
Sea Level Pressure  
Sea Level Pressure 30.08 in    
Wind  
Wind Speed 3 mph (SSW)    
Max Wind Speed 9 mph    
Max Gust Speed -    
Visibility 10 miles    
Events      
Averages and records for this station are not official NWS values.
T = Trace of Precipitation, MM = Missing Value Source: NWS Daily Summary

Daily Weather History Graph

Daily Weather History Graph

Search for Another Location

Airport or City:

Trip Planner

Search our weather history database for the weather conditions in past years. The results will help you decide how hot, cold, wet, or windy it might be!

Date:

Astronomy

Nov. 08, 2013 Rise Set
Actual Time 6:13 AM PST 4:38 PM PST
Civil Twilight 5:46 AM PST 5:06 PM PST
Nautical Twilight 5:15 AM PST 5:36 PM PST
Astronomical Twilight 4:45 AM PST 6:07 PM PST
Moon 11:12 AM PST (11/8) 10:04 PM PST (11/8)
Length of Visible Light 11h 19m
Length of Day
10h 25m
Waxing Crescent, 34% of the Moon is Illuminated
Nov 8
Waxing Crescent
Nov 9
First Quarter
Nov 17
Full
Nov 25
Last Quarter
Dec 2
New

Hourly Weather History & Observations

Time (PST) Temp. Windchill Dew Point Humidity Pressure Visibility Wind Dir Wind Speed Gust Speed Precip Events Conditions
12:58 AM 40.5 °F 37.3 °F 15.1 °F 36% 30.13 in 10.0 mi SW 4.6 mph - N/A   Clear
1:58 AM 38.7 °F 36.3 °F 14.2 °F 37% 30.13 in 10.0 mi North 3.5 mph - N/A   Clear
2:58 AM 35.6 °F - 13.1 °F 40% 30.12 in 10.0 mi SW 2.3 mph - N/A   Clear
3:58 AM 37.8 °F 35.3 °F 15.1 °F 40% 30.11 in 10.0 mi SSE 3.5 mph - N/A   Clear
4:58 AM 35.2 °F - 14.4 °F 42% 30.12 in 10.0 mi West 2.3 mph - N/A   Clear
5:58 AM 36.5 °F - 16.3 °F 44% 30.12 in 10.0 mi West 2.3 mph - N/A   Clear
6:58 AM 35.6 °F - 13.6 °F 41% 30.13 in 10.0 mi West 2.3 mph - N/A   Clear
7:58 AM 41.9 °F - 16.3 °F 36% 30.14 in 10.0 mi Calm Calm - N/A   Clear
8:58 AM 47.8 °F - 17.6 °F 30% 30.15 in 10.0 mi Calm Calm - N/A   Clear
9:58 AM 54.7 °F - 18.9 °F 25% 30.13 in 10.0 mi Calm Calm - N/A   Clear
10:58 AM 60.4 °F - 18.5 °F 20% 30.12 in 10.0 mi WNW 1.2 mph - N/A   Clear
11:58 AM 63.5 °F - 16.9 °F 17% 30.08 in 10.0 mi Calm Calm - N/A   Clear
12:58 PM 66.9 °F - 15.8 °F 14% 30.06 in 10.0 mi SE 3.5 mph - N/A   Clear
1:58 PM 68.4 °F - 13.5 °F 12% 30.03 in 10.0 mi Variable 3.5 mph - N/A   Clear
2:58 PM 68.7 °F - 12.6 °F 11% 30.02 in 10.0 mi East 4.6 mph - N/A   Clear
3:58 PM 67.8 °F - 13.6 °F 12% 30.01 in 10.0 mi ESE 6.9 mph - N/A   Clear
4:58 PM 61.3 °F - 15.4 °F 17% 30.02 in 10.0 mi SE 6.9 mph - N/A   Clear
5:58 PM 57.4 °F - 16.0 °F 20% 30.02 in 10.0 mi East 9.2 mph - N/A   Clear
6:58 PM 53.1 °F - 16.3 °F 23% 30.03 in 10.0 mi West 6.9 mph - N/A   Clear
7:58 PM 50.0 °F - 14.7 °F 25% 30.04 in 10.0 mi Calm Calm - N/A   Clear
8:58 PM 48.0 °F - 17.2 °F 29% 30.05 in 10.0 mi Calm Calm - N/A   Clear
9:58 PM 46.9 °F - 15.8 °F 29% 30.06 in 10.0 mi Calm Calm - N/A   Clear
10:58 PM 43.0 °F - 13.8 °F 31% 30.07 in 10.0 mi Calm Calm - N/A   Clear
11:58 PM 42.3 °F - 16.7 °F 36% 30.07 in 10.0 mi Calm Calm - N/A   Clear